Regional Weather Roundup
Issued by NWS Wilmington, NC

Home | Current Version | Previous Version | Text Only | Print | Product List | Glossary On
Versions: 1 2 3 4 5 6 7 8 9 10 11 12 13 14 15 16 17 18 19 20 21 22 23 24 25 26 27 28 29 30 31 32 33 34 35 36 37 38 39 40 41 42 43 44 45 46 47 48 49 50
000
ASUS42 KILM 280113
RWRILM
RWRILM
REGIONAL HOURLY WEATHER ROUNDUP
NATIONAL WEATHER SERVICE WILMINGTON NC
900 PM EDT THU AUG 27 2015

NOTE: "FAIR" INDICATES FEW OR NO CLOUDS BELOW 12,000 FEET WITH NO
SIGNIFICANT WEATHER AND/OR OBSTRUCTIONS TO VISIBILITY.

...............WFO WILMINGTON COUNTY WARNING AREA...............

......COASTAL NC AND SC COUNTIES......

CITY           SKY/WX    TMP DP  RH WIND       PRES   REMARKS
WILMINGTON     CLOUDY    74  70  87 NE10      30.04R
N MYRTLE BEACH CLOUDY    74  72  93 N7        30.03S
MYRTLE BEACH   MOCLDY    75  70  83 NE8       30.04

......INLAND NC AND SC COUNTIES.......

CITY           SKY/WX    TMP DP  RH WIND       PRES   REMARKS
LUMBERTON      MOCLDY    74  65  73 NE7       30.06R
ELIZABETHTOWN  CLOUDY    73  65  75 CALM      30.07R
WHITEVILLE     CLOUDY    73  69  87 NE6       30.05S
FLORENCE       PTCLDY    75  68  78 NE7       30.04S
DARLINGTON     PTCLDY    73  64  73 NE8       30.07S

....................REST OF NORTH CAROLINA......................

.........EASTERN NC.........

CITY           SKY/WX    TMP DP  RH WIND       PRES   REMARKS
CAPE HATTERAS  CLOUDY    71  69  93 NE6       30.05S
JACKSONVILLE   CLOUDY    72  63  73 N9        30.07R
MOREHEAD CITY  MOCLDY    73  72  96 NE9       30.06R
KENANSVILLE      N/A     71  64  79 CALM      30.09R
NEW BERN       PTCLDY    72  64  76 NE9       30.08R
ELIZABETH CITY CLOUDY    73  62  68 N7        30.09R

.........CENTRAL NC.........

CITY           SKY/WX    TMP DP  RH WIND       PRES   REMARKS
RALEIGH DURHAM MOCLDY    74  59  59 E5        30.09R
ROCKY MOUNT    MOCLDY    70  63  78 CALM      30.10R
ROANOKE RAPIDS NOT AVBL
FAYETTEVILLE   MOCLDY    72  64  76 NE5       30.07R
HOFFMAN        PTCLDY    74  64  71 SE5       30.07S

.........WESTERN NC.........

CITY           SKY/WX    TMP DP  RH WIND       PRES   REMARKS
CHARLOTTE      PTCLDY    79  58  48 NE6       30.07R
GREENSBORO     PTCLDY    73  58  59 E8        30.10R
HICKORY        NOT AVBL
BOONE          NOT AVBL
ASHEVILLE      NOT AVBL

.....................REST OF SOUTH CAROLINA.....................

.........EASTERN SC.........

CITY           SKY/WX    TMP DP  RH WIND       PRES   REMARKS
CHARLESTON     MOCLDY    74  70  87 E5        30.02S
BEAUFORT MCAS  MOCLDY    80  71  74 NE5       30.01R
HILTON HEAD    PTCLDY    79  73  83 NE5       30.02R

.........CENTRAL SC.........

CITY           SKY/WX    TMP DP  RH WIND       PRES   REMARKS
COLUMBIA       PTCLDY    81  68  64 E12       30.02R
ORANGEBURG     MOCLDY    78  69  73 E3        30.03R
SUMTER SHAW    PTCLDY    77  67  71 E10       30.02R

.........WESTERN SC.........

CITY           SKY/WX    TMP DP  RH WIND       PRES   REMARKS
GREENVILLE     NOT AVBL
ROCK HILL      CLEAR     75  62  64 CALM      30.07R
ANDERSON       PTCLDY    76  63  64 NE3       30.05R
CLEMSON        NOT AVBL
GREENWOOD      CLEAR     73  67  81 NE3       30.06R


...................COASTAL AND OFFSHORE REPORTS..................

................LOCAL PIERS AND NC RESERVE................


STATION/POSITION TIME  SKY/WX   TEMP    WIND        PRES    VSBY
                                AIR SEA DIR/SP/G
                 (UTC)          (F)     (DEG/KT/KT) (MB)    (MI)
JOHNY MRCER PIER 0000            78 84   10/ 12/ 15 1016.3R
NC RESRV MASNBRO NOT AVBL
OCEAN CREST PIER NOT AVBL
SPRINGMAID  PIER 0000            77 84  350/  8/ 12 1016.5R


................COASTAL AND OFFSHORE BUOYS................


STATION/POSITION TIME  SKY/WX   TEMP    WIND        PRES    VSBY
                                AIR SEA DIR/SP/G
                 (UTC)          (F)     (DEG/KT/KT) (MB)    (MI)
DIMNDSHOAL 41025 0050            77 82   50/ 10/ 12 1017.2R
WVE H/P(F/S)=  5/ 9 WND WVE H/P(F/S)=  2/ 4 SWL H/P/D(F/S/D)=  5/ 80/ 9

CAPE LOOKOUT     0100            75      70/  5/  5 1017.4R
ONSLOW BAY 41036 NOT AVBL
ONSLOW BAY 41064 0008            79 82   30/ 10/ 14 1016.7R
ONSLOW BAY 41159 0025               82                N/A
WVE H/P(F/S)=  4/ 6 WND WVE H/P(F/S)=  3/ 6 SWL H/P/D(F/S/D)=  2/130/11

5SE WRITBC 41038 0008            79 82   50/ 19/ 25 1016.2R
MASNBO INL 41110 0019               83                N/A
WVE H/P(F/S)=  4/ 5 WND WVE H/P(F/S)=  5/ 5 SWL H/P/D(F/S/D)=  2/130/11

WILM HARBR 41108 0011               83                N/A
WVE H/P(F/S)=  3/10 WND WVE H/P(F/S)=  3/10 SWL H/P/D(F/S/D)=  2/150/11

27SE WRITB 41037 0000            76 82  100/ 12/ 16   N/A
FRYING PAN 41013 0050            80 81   50/ 16/ 17 1016.3R
SUNST NRSH 41024 0008            78      30/ 12/ 16 1016.4
CAPRS NRSH 41029 0008            78      40/ 12/ 16 1016.0R
EDISTO     41004 0050            81 85  350/  4/  6 1015.3R
WVE H/P(F/S)=  2/10 WND WVE H/P(F/S)=  2/ 4 SWL H/P/D(F/S/D)=  2/10



..........OFFSHORE BUOYS BEYOND 100 NM OFFSHORE...........
.....IN A TRIANGLE---HAT TO BERMUDA TO BAHAMAS TO HAT.....


STATION/POSITION TIME  SKY/WX   TEMP    WIND        PRES    VSBY
                                AIR SEA DIR/SP/G
                 (UTC)          (F)     (DEG/KT/KT) (MB)    (MI)
150E HAT   41001 0000            78 83   10/  4/  6 1017.0R
W BERMUDA  41048 0050            83 83  180/ 10/ 12 1017.8R
WVE H/P(F/S)=  4/11 WND WVE H/P(F/S)=  2/ 3 SWL H/P/D(F/S/D)=  3/110/11

ATLANTIC S 41049 0050            85 88  150/  4/  6 1020.1R
WVE H/P(F/S)=  6/11 SWL H/P/D(F/S/D)=  7/120/11

E BAHAMAS  41046 0050            86 86   90/ 17/ 19 1017.4R
WVE H/P(F/S)=  6/ 9 WND WVE H/P(F/S)=  3/ 5 SWL H/P/D(F/S/D)=  5/ 90/ 9

NE BAHAMAS 41047 0050            85 86  160/ 10/ 14 1017.4R
WVE H/P(F/S)=  4/ 8 WND WVE H/P(F/S)=  2/ 5 SWL H/P/D(F/S/D)=  3/100/ 8

120E CANVRL41010 0020            80 85  130/ 16/ 17 1014.5F

END


USA.gov is the U.S. government's official web portal to all federal, state and local government web resources and services.